SCP
0 0 -0 0 0 0 0 0 -0 -0 -0 0 -0 0 0 -0 0 0 -0 -0 0 -0 -0 -0 -0 -0 0 0 0 0 0 0 0 0 0 0 0 0 -0 -0 -0 0 0 0 0 0 0 -0 0
0 -0 0 0 0 0 0 -0 0 -0 -0 -0 -0 -0 0 0 0 0 -0 -0 0 0 0 0 0 -0 0 0 0 0 0 0 0 0 0 0 0 0 0 0 0 0 0 0 0 0 0 -0 -0
0 -0 0 0 0 0 -0 -0 -0 0 -0 0 -0 0 0 0 -0 -0 -0 0 0 0 0 -0 -0 -0 -0 0 0 0 0 0 0 0 0 0 0 0 0 0 0 0 0 0 0 0 0 0 0
0 0 0 0 0 0 0 -0 -0 -0 -0 0 -0 -0 0 0 0 -0 -0 0 -0 -0 0 -0 -0 0 0 0 0 0 0 0 0 0 0 0 0 0 0 0 0 0 0 0 0 0 0 0 0
-0 0 0 0 0 0 -0 0 -0 -0 0 0 0 0 -0 0 -0 -0 -0 0 -0 0 0 0 0 0 0 0 0 0 0 0 0 0 0 0 0 0 0 0 0 0 0 0 0 0 0 0 0
0 0 0 0 -0 0 0 -0 -0 0 0 0 -0 -0 0 -0 -0 -0 -0 -0 -0 0 0 0 -0 -0 0 0 0 0 0 0 0 0 0 0 0 0 0 0 0 0 0 0 0 0 0 0 0
0 0 0 0 0 -0 0 0 0 0 0 0 -0 0 0 0 0 -0 -0 -0 -0 0 0 0 -0 -0 0 0 0 0 0 0 0 0 0 0 0 0 0 0 0 0 0 0 0 0 0 0 0
0 0 0 0 0 0 0 0 0 0 0 0 0 0 -0 0 0 0 -0 0 0 0 0 0 0 0 0 0 0 0 0 0 0 0 0 0 0 0 0 0 0 0 0 0 0 0 0 0 0
0 0 0 0 -0 0 -0 0 0 -0 -0 0 0 -0 -0 0 -0 -0 0 0 0 0 0 0 0 0 0 0 -0 0 0 0 0 0 0 0 0 0 0 0 0 0 0 0 0 0 0 0 0
-0 -0 -0 0 -0 0 -0 -0 0 0 0 0 -0 -0 -0 -0 -0 -0 -0 0 0 0 0 0 0 0 0 0 -0 0 0 0 0 0 0 0 0 0 0 0 0 0 0 0 0 0 1 1 0
0 -0 0 -0 0 0 0 0 0 -0 0 0 -0 -0 -0 0 0 -0 -0 0 0 0 0 0 0 0 0 0 0 0 0 0 0 0 0 0 0 0 0 0 0 0 0 0 0 0 1 1 1
0 -0 0 0 0 -0 -0 0 -0 0 0 -0 -0 -0 -0 0 -0 -0 -0 0 0 0 0 0 0 0 0 0 0 0 0 0 0 0 0 0 0 0 0 0 0 0 0 0 0 1 1 0 1
0 0 0 -0 -0 -0 -0 0 0 0 0 -0 -0 0 0 0 0 0 0 -0 0 0 0 0 0 0 0 0 0 0 0 0 0 0 0 0 0 0 0 0 0 0 0 0 0 0 0 0 0
0 0 -0 -0 -0 -0 -0 0 -0 0 0 0 0 0 0 0 -0 0 0 0 -0 0 0 0 0 0 0 0 0 0 0 0 0 0 0 0 0 0 0 0 0 0 0 0 0 0 1 0 0
0 0 -0 -0 -0 -0 -0 0 0 -0 -0 0 0 0 0 -0 -0 -0 -0 -0 0 0 0 0 0 0 0 0 0 0 0 0 0 0 0 0 0 0 0 0 0 0 0 0 0 0 1 1 0
0 0 0 0 0 -0 -0 -0 0 -0 0 0 0 0 0 -0 -0 -0 -0 -0 0 0 0 -0 0 0 0 0 0 0 0 0 0 0 0 0 0 0 0 0 0 0 0 0 0 0 1 1 1
0 0 0 0 0 0 -0 0 -0 0 0 0 0 0 0 -0 0 0 0 -0 -0 0 0 0 0 0 0 0 0 0 0 0 0 0 0 0 0 0 0 0 0 0 0 0 0 1 1 1 0
0 0 0 0 0 0 0 0 -0 -0 -0 0 0 0 -0 -0 0 0 0 0 0 0 0 0 0 0 0 0 0 0 0 0 0 0 0 0 0 0 0 0 0 0 0 0 0 1 0 0 0
0 0 0 0 0 0 0 0 -0 -0 -0 0 0 0 -0 -0 0 0 0 0 0 0 0 0 0 0 0 0 -0 0 0 0 0 -0 -0 -0 0 0 0 0 0 0 0 0 0 0 0 0 0
0 0 0 0 0 0 0 0 -0 -0 -0 -0 0 0 0 -0 -0 0 0 0 0 -0 0 0 0 0 0 -0 0 0 0 0 -0 -0 0 -0 0 0 0 0 0 0 0 0 0 0 0 0 0
0 0 0 0 0 0 0 0 0 0 0 0 0 0 0 -0 -0 0 0 0 0 0 -0 0 0 0 0 0 0 -0 0 0 0 0 -0 -0 -0 -0 0 0 0 0 0 0 0 0 0 0 0
0 0 0 0 0 0 0 0 -0 0 0 -0 0 0 -0 -0 -0 -0 0 0 0 0 0 -0 -0 0 0 -0 0 0 0 0 0 0 0 -0 -0 -0 -0 0 0 0 0 0 0 0 0 0 0
0 0 0 0 0 0 0 0 -0 -0 0 -0 -0 -0 -0 -0 -0 -0 0 0 0 -0 -0 -0 -0 0 0 0 0 0 0 0 0 0 0 0 0 0 -0 -0 0 0 0 0 0 0 0 0 0
0 0 0 0 0 0 0 0 -0 0 -0 -0 -0 -0 0 0 -0 0 -0 -0 0 0 -0 -0 -0 -0 0 0 0 0 -0 0 0 0 0 0 0 0 0 0 0 0 0 0 0 0 0 0 0
0 0 0 0 0 0 0 0 0 -0 0 -0 -0 -0 0 0 0 0 -0 -0 0 0 -0 -0 -0 -0 -0 0 0 0 0 0 0 0 0 0 0 0 0 0 0 0 0 0 0 0 0 0 0
0 0 0 0 0 0 0 0 0 0 0 0 -0 -0 -0 0 0 0 0 0 0 0 0 0 0 0 0 0 0 0 0 0 0 0 0 0 0 0 0 0 0 0 0 0 0 0 0 0 0
0 0 0 0 0 0 0 0 0 0 0 0 0 -0 -0 -0 0 0 0 0 0 0 0 0 0 0 0 0 0 0 0 0 0 0 0 0 0 0 0 0 0 0 0 0 0 0 0 0 0
0 0 0 0 0 0 0 0 0 0 0 0 0 -0 0 -0 0 0 0 0 0 0 0 0 0 0 0 0 0 0 0 0 0 0 0 0 0 0 0 0 0 0 0 0 0 0 0 0 0
0 0 0 0 0 0 0 0 0 0 0 0 0 -0 0 0 0 0 0 0 0 0 0 0 0 0 0 0 0 0 0 0 0 0 0 0 0 0 0 0 0 0 0 0 0 0 0 0 0
0 0 0 0 0 0 0 0 0 0 0 0 0 0 -0 -0 0 -0 0 0 0 0 0 1 0 0 0 0 0 0 0 0 0 0 0 0 0 0 0 0 0 0 0 0 0 0 0 0 0
Wind_Speed_500mb
12 11 1 6 1 1 7 10 15 34 22 17 35 10 14 15 4 12 45 34 35 33 31 28 23 26 24 27 29 28 26 26 25 25 25 26 27 28 29 29 30 30 35 36 37 39 40 38 36
12 5 4 2 3 7 5 11 31 28 33 49 18 30 12 8 9 35 37 42 34 32 29 28 25 26 25 22 26 25 24 25 24 24 26 27 27 28 29 28 31 35 33 36 37 37 38 36 34
9 6 2 3 1 6 10 14 34 34 45 20 11 16 9 7 25 34 45 42 36 32 30 28 25 25 27 23 21 21 20 22 22 24 26 27 27 27 28 28 31 34 36 35 36 39 36 33 34
2 2 5 1 10 7 6 28 44 50 37 7 27 19 13 13 27 34 47 39 35 32 29 25 23 20 23 21 19 19 17 19 20 22 27 24 27 27 28 29 33 33 34 31 27 29 29 30 30
9 2 1 7 13 10 17 33 36 40 27 18 3 12 25 16 21 50 42 39 34 30 26 22 21 19 19 19 19 18 17 18 18 21 24 22 22 24 24 27 30 30 31 32 36 36 32 33 32
3 1 4 7 22 21 25 22 37 25 21 21 30 31 13 19 46 42 41 37 31 28 25 21 21 18 20 20 19 20 19 21 21 20 23 20 20 22 24 23 25 28 28 30 30 30 29 31 33
3 2 5 9 25 17 12 19 14 20 25 13 34 18 18 34 39 42 39 35 30 26 23 22 20 19 19 21 19 19 21 21 23 22 20 20 23 23 23 22 24 27 28 31 33 31 32 33 34
6 4 6 11 12 9 5 11 23 18 16 23 30 13 22 44 45 43 37 33 29 27 22 22 20 20 22 23 19 20 20 22 20 21 19 22 22 23 21 21 24 24 25 28 30 27 29 30 31
6 7 5 2 7 5 15 10 11 17 35 14 3 35 44 48 48 42 39 31 31 26 24 21 20 21 21 24 22 23 23 21 21 22 20 21 22 22 22 23 24 23 24 25 25 23 23 25 29
4 5 12 19 8 6 14 23 20 19 16 18 37 39 52 49 47 43 39 35 29 29 27 23 24 25 24 23 22 22 23 24 26 23 23 22 23 25 25 28 26 23 20 18 20 20 22 24 25
5 4 16 32 17 15 23 23 11 32 6 21 61 59 51 48 43 39 36 34 31 28 25 25 25 26 24 22 22 22 21 25 26 26 27 28 32 34 34 33 28 24 19 17 16 17 20 19 21
5 7 26 14 26 22 21 24 19 16 5 35 51 59 53 47 43 39 35 34 33 30 27 26 26 25 26 27 23 24 22 29 30 32 30 33 35 34 33 28 25 20 16 13 13 18 21 19 19
9 4 18 16 28 27 22 26 16 14 18 45 47 46 44 40 36 36 33 32 32 31 29 28 27 26 28 24 24 25 26 31 33 32 32 36 33 29 24 19 19 21 17 19 16 18 23 15 15
8 9 14 7 29 26 29 17 16 16 20 43 46 43 41 36 36 35 34 37 34 33 31 30 29 29 26 24 24 26 29 31 30 32 34 34 29 24 20 19 17 16 16 14 14 17 20 21 18
20 20 19 25 30 15 48 13 17 24 24 42 43 39 36 32 31 32 33 35 33 34 32 31 33 31 28 26 27 29 28 28 30 33 34 28 26 21 20 15 14 12 14 8 10 14 16 19 21
9 9 14 12 20 23 17 30 35 23 34 42 41 38 37 33 31 29 30 31 32 37 36 35 33 28 29 27 29 30 28 29 32 36 28 22 21 20 17 10 13 9 11 11 10 12 15 17 17
3 8 9 16 8 20 8 13 41 37 44 48 44 41 36 32 31 32 31 29 29 33 38 34 29 28 30 29 30 29 29 30 29 28 21 19 19 18 16 13 15 13 7 10 11 14 14 15 17
15 10 5 11 18 25 17 8 31 46 50 41 45 36 38 38 41 37 37 31 28 29 35 35 31 26 31 29 31 31 31 27 23 24 23 19 19 15 14 12 16 12 7 10 12 14 13 15 15
14 12 10 9 18 17 9 19 31 49 52 42 52 37 38 41 35 36 39 35 30 31 33 36 36 36 30 32 35 34 34 29 22 25 25 19 20 16 10 12 14 9 6 7 11 12 13 15 10
8 10 9 12 9 5 15 23 28 41 51 50 47 41 36 28 30 36 43 41 38 33 34 37 35 37 31 33 35 35 30 28 24 22 26 19 24 17 13 9 8 5 4 3 7 7 9 13 11
8 9 11 6 13 7 23 17 23 29 26 32 47 50 31 27 36 38 45 45 43 39 36 40 36 31 28 25 32 34 33 30 26 25 27 24 24 22 16 13 7 7 6 4 1 6 9 11 11
16 14 14 19 14 6 3 8 17 28 29 43 44 51 49 22 34 39 42 49 49 40 35 39 38 35 31 24 25 25 32 32 27 25 23 23 27 26 20 17 13 12 10 8 6 2 7 13 10
3 6 19 13 7 6 11 5 11 27 31 40 56 56 51 44 29 38 49 44 44 44 37 37 40 36 37 28 24 23 23 21 20 21 24 20 24 26 26 22 17 15 13 11 11 4 5 11 13
19 21 18 12 3 8 12 14 12 22 39 41 59 61 56 43 34 26 31 36 41 48 42 41 43 34 39 31 27 24 21 21 18 18 25 23 21 23 25 25 20 17 12 14 16 9 4 5 10
7 21 8 7 8 6 3 13 7 21 16 40 55 70 61 52 31 25 33 37 42 50 49 46 42 38 37 35 28 23 21 20 17 15 19 19 22 25 23 23 27 19 13 16 18 13 7 4 3
31 24 15 25 11 13 9 13 4 7 13 23 53 65 63 55 36 21 34 37 39 44 49 46 45 42 38 33 33 27 17 18 18 18 16 14 21 20 20 22 26 20 17 18 21 16 11 8 7
14 18 8 6 3 10 7 6 10 6 9 22 43 54 62 52 32 24 29 35 36 42 44 47 46 44 44 38 32 32 26 20 20 19 18 20 18 19 18 20 25 25 21 23 23 22 20 16 15
15 13 15 7 16 15 7 8 9 12 15 21 37 55 62 54 43 29 27 32 43 44 42 43 43 43 44 41 35 31 28 23 23 28 24 23 23 22 20 20 22 23 24 23 26 25 23 23 21
9 9 3 6 5 18 9 7 4 14 19 21 34 45 54 57 64 40 28 29 29 40 46 44 39 43 38 45 39 33 31 24 20 18 22 27 23 22 22 20 20 22 21 21 22 26 26 23 27
2 2 9 14 13 2 8 8 6 9 21 23 24 29 38 44 41 46 47 36 27 39 33 46 39 35 37 40 42 37 35 28 22 21 10 31 24 23 20 22 26 28 28 29 24 22 26 27 25
Wind_Direction_500mb
132 137 34 9 280 162 87 102 106 130 143 152 148 156 121 53 35 101 146 151 148 146 144 144 138 124 121 122 115 120 111 98 98 96 96 99 101 101 94 92 97 96 100 99 100 101 96 92 93
137 113 48 18 302 99 76 106 133 139 141 141 119 127 96 76 80 133 142 147 147 145 144 142 141 131 128 125 125 120 117 103 95 96 100 102 102 102 102 100 101 96 101 101 96 100 99 90 86
112 63 60 32 52 89 109 128 134 127 137 141 113 89 67 75 126 137 145 146 151 148 143 140 139 136 133 133 132 129 124 111 106 105 101 98 98 99 100 106 102 99 96 95 94 94 85 82 78
123 21 41 80 70 62 97 144 134 135 147 73 121 76 74 129 130 143 144 145 149 146 142 142 140 143 140 143 138 134 133 129 115 105 101 97 97 94 100 106 109 99 92 88 99 93 82 78 72
103 73 233 98 71 59 109 141 143 145 152 127 109 98 112 144 144 143 143 146 148 141 139 134 133 139 136 145 149 149 144 138 123 111 103 105 98 99 103 113 111 103 95 87 90 95 82 77 74
108 214 33 64 98 99 90 107 136 132 133 119 105 114 101 144 147 144 144 144 146 142 135 136 131 137 135 131 140 145 144 140 135 126 110 108 102 104 96 111 115 105 94 90 90 92 85 74 67
106 128 60 56 118 105 90 103 108 116 118 98 132 106 128 143 149 146 144 146 147 142 139 140 139 144 137 136 138 140 146 138 138 133 127 117 102 102 106 103 116 110 97 93 95 88 76 66 60
129 94 44 23 149 105 95 96 107 110 91 125 129 141 153 160 151 147 146 149 145 145 145 143 140 144 137 133 135 134 141 151 143 138 133 125 110 105 107 109 114 112 101 94 90 82 65 60 54
147 89 77 299 145 99 138 125 84 111 123 108 155 143 148 151 149 149 150 151 151 154 147 146 143 141 138 134 129 133 136 144 145 137 140 133 115 113 102 110 116 113 103 94 87 76 59 46 43
53 94 133 194 176 152 146 117 123 133 122 90 116 128 145 151 156 156 159 157 157 163 158 153 144 141 139 141 136 143 145 149 151 145 137 130 123 115 109 107 112 111 102 88 77 62 51 46 43
125 135 165 199 210 170 142 137 114 135 147 177 149 147 153 158 162 165 165 163 162 162 158 153 152 150 146 149 144 145 151 153 148 145 138 129 122 115 112 112 110 104 93 76 58 43 44 57 62
170 199 170 173 185 164 149 120 116 61 327 153 151 150 156 164 167 173 172 167 167 166 161 156 154 152 151 141 136 136 139 152 149 144 138 132 123 115 111 111 114 107 93 81 61 66 53 57 67
224 164 185 174 181 158 139 117 122 102 121 144 148 152 160 166 171 178 175 168 171 168 164 161 155 152 149 145 134 131 137 143 143 143 139 135 126 119 118 122 120 109 95 83 66 69 55 66 74
185 158 137 172 173 147 121 90 92 183 144 151 157 162 168 172 173 175 179 173 172 169 168 165 158 155 149 145 146 137 138 139 143 145 142 138 134 126 124 129 121 105 109 84 66 52 50 60 76
137 133 105 122 141 109 100 125 203 171 160 166 168 171 175 177 180 179 176 173 169 170 168 163 163 156 153 146 146 141 140 143 146 147 143 141 145 132 128 134 134 113 117 81 58 55 51 50 62
143 150 156 164 149 144 173 195 211 170 168 176 177 182 184 185 188 186 186 172 170 172 167 162 166 168 167 164 156 149 145 145 148 151 153 151 157 138 129 137 156 125 97 76 64 40 39 43 48
99 159 140 148 168 155 205 131 186 188 183 183 181 187 191 189 194 197 196 186 178 176 175 171 176 170 167 161 164 164 156 156 155 164 165 158 152 144 141 132 147 140 107 80 66 53 55 46 33
161 145 152 129 163 170 185 116 161 184 184 189 183 192 197 199 198 201 200 193 190 187 190 186 185 182 186 179 176 172 172 172 173 178 180 175 168 155 154 140 144 140 125 98 63 61 54 32 35
122 118 131 122 158 159 164 143 159 167 178 193 193 193 207 209 204 202 207 200 199 202 198 195 190 192 190 193 188 184 188 190 188 189 189 198 183 171 160 149 148 127 129 98 52 58 39 32 32
134 127 99 106 139 144 159 157 162 171 186 185 188 201 206 209 205 206 210 208 202 205 200 199 190 190 196 200 197 194 197 199 198 193 197 196 186 184 171 162 170 165 149 113 50 45 28 40 49
181 175 159 113 150 160 157 141 168 189 182 168 185 217 196 216 211 210 207 211 204 207 201 196 195 188 185 190 201 208 211 204 203 203 202 208 200 203 202 203 212 230 216 208 119 32 32 48 56
208 203 155 145 178 158 231 160 205 183 192 183 179 197 208 208 209 214 213 208 208 209 203 198 195 193 195 188 189 204 207 207 214 213 208 205 211 211 210 215 231 232 227 212 194 47 45 53 64
230 181 181 162 124 194 182 223 137 191 205 205 190 196 200 207 209 203 213 212 209 209 208 206 200 203 202 198 197 199 202 201 209 206 208 206 201 208 207 211 219 222 232 220 192 181 84 62 72
141 120 94 91 129 238 182 223 175 185 215 206 206 200 196 203 209 220 209 209 208 210 215 212 204 202 202 204 199 206 204 210 214 215 207 205 207 204 204 211 210 200 218 210 195 185 160 86 73
204 181 156 163 190 231 171 191 278 189 214 211 202 201 199 192 195 215 201 205 215 213 214 214 208 205 203 211 209 209 223 226 223 214 210 221 210 194 196 199 193 195 212 203 199 202 191 195 78
204 228 226 207 195 198 137 219 188 239 248 231 205 196 192 193 200 206 203 205 215 217 213 216 214 211 208 213 213 215 217 215 201 212 229 224 209 198 201 196 195 202 215 210 208 220 230 235 235
181 220 280 127 76 214 167 225 217 196 211 194 192 186 190 184 176 187 193 198 208 224 222 220 223 220 217 217 221 223 227 227 225 215 217 220 208 207 209 205 203 210 221 221 218 227 238 248 251
220 158 198 239 179 216 191 259 236 202 191 185 189 191 191 191 181 182 191 200 217 224 228 227 228 224 225 222 225 223 224 230 233 224 224 210 212 210 215 210 208 216 220 221 226 232 242 246 247
167 199 194 221 272 225 197 227 144 189 186 188 190 193 192 195 198 202 199 202 207 221 229 234 227 224 225 225 227 228 221 227 225 217 232 213 210 207 210 214 220 223 225 226 227 234 236 247 246
285 85 219 225 186 242 282 212 160 189 175 177 182 186 196 198 198 205 211 231 219 223 223 227 220 214 222 223 229 229 223 223 223 227 234 211 217 212 218 228 233 240 241 240 241 239 241 242 245
Wind_Speed_850mb
12 11 1 6 1 1 7 10 15 34 22 17 35 10 14 15 4 12 45 34 35 33 31 28 23 26 24 27 29 28 26 26 25 25 25 26 27 28 29 29 30 30 35 36 37 39 40 38 36
12 5 4 2 3 7 5 11 31 28 33 49 18 30 12 8 9 35 37 42 34 32 29 28 25 26 25 22 26 25 24 25 24 24 26 27 27 28 29 28 31 35 33 36 37 37 38 36 34
9 6 2 3 1 6 10 14 34 34 45 20 11 16 9 7 25 34 45 42 36 32 30 28 25 25 27 23 21 21 20 22 22 24 26 27 27 27 28 28 31 34 36 35 36 39 36 33 34
2 2 5 1 10 7 6 28 44 50 37 7 27 19 13 13 27 34 47 39 35 32 29 25 23 20 23 21 19 19 17 19 20 22 27 24 27 27 28 29 33 33 34 31 27 29 29 30 30
9 2 1 7 13 10 17 33 36 40 27 18 3 12 25 16 21 50 42 39 34 30 26 22 21 19 19 19 19 18 17 18 18 21 24 22 22 24 24 27 30 30 31 32 36 36 32 33 32
3 1 4 7 22 21 25 22 37 25 21 21 30 31 13 19 46 42 41 37 31 28 25 21 21 18 20 20 19 20 19 21 21 20 23 20 20 22 24 23 25 28 28 30 30 30 29 31 33
3 2 5 9 25 17 12 19 14 20 25 13 34 18 18 34 39 42 39 35 30 26 23 22 20 19 19 21 19 19 21 21 23 22 20 20 23 23 23 22 24 27 28 31 33 31 32 33 34
6 4 6 11 12 9 5 11 23 18 16 23 30 13 22 44 45 43 37 33 29 27 22 22 20 20 22 23 19 20 20 22 20 21 19 22 22 23 21 21 24 24 25 28 30 27 29 30 31
6 7 5 2 7 5 15 10 11 17 35 14 3 35 44 48 48 42 39 31 31 26 24 21 20 21 21 24 22 23 23 21 21 22 20 21 22 22 22 23 24 23 24 25 25 23 23 25 29
4 5 12 19 8 6 14 23 20 19 16 18 37 39 52 49 47 43 39 35 29 29 27 23 24 25 24 23 22 22 23 24 26 23 23 22 23 25 25 28 26 23 20 18 20 20 22 24 25
5 4 16 32 17 15 23 23 11 32 6 21 61 59 51 48 43 39 36 34 31 28 25 25 25 26 24 22 22 22 21 25 26 26 27 28 32 34 34 33 28 24 19 17 16 17 20 19 21
5 7 26 14 26 22 21 24 19 16 5 35 51 59 53 47 43 39 35 34 33 30 27 26 26 25 26 27 23 24 22 29 30 32 30 33 35 34 33 28 25 20 16 13 13 18 21 19 19
9 4 18 16 28 27 22 26 16 14 18 45 47 46 44 40 36 36 33 32 32 31 29 28 27 26 28 24 24 25 26 31 33 32 32 36 33 29 24 19 19 21 17 19 16 18 23 15 15
8 9 14 7 29 26 29 17 16 16 20 43 46 43 41 36 36 35 34 37 34 33 31 30 29 29 26 24 24 26 29 31 30 32 34 34 29 24 20 19 17 16 16 14 14 17 20 21 18
20 20 19 25 30 15 48 13 17 24 24 42 43 39 36 32 31 32 33 35 33 34 32 31 33 31 28 26 27 29 28 28 30 33 34 28 26 21 20 15 14 12 14 8 10 14 16 19 21
9 9 14 12 20 23 17 30 35 23 34 42 41 38 37 33 31 29 30 31 32 37 36 35 33 28 29 27 29 30 28 29 32 36 28 22 21 20 17 10 13 9 11 11 10 12 15 17 17
3 8 9 16 8 20 8 13 41 37 44 48 44 41 36 32 31 32 31 29 29 33 38 34 29 28 30 29 30 29 29 30 29 28 21 19 19 18 16 13 15 13 7 10 11 14 14 15 17
15 10 5 11 18 25 17 8 31 46 50 41 45 36 38 38 41 37 37 31 28 29 35 35 31 26 31 29 31 31 31 27 23 24 23 19 19 15 14 12 16 12 7 10 12 14 13 15 15
14 12 10 9 18 17 9 19 31 49 52 42 52 37 38 41 35 36 39 35 30 31 33 36 36 36 30 32 35 34 34 29 22 25 25 19 20 16 10 12 14 9 6 7 11 12 13 15 10
8 10 9 12 9 5 15 23 28 41 51 50 47 41 36 28 30 36 43 41 38 33 34 37 35 37 31 33 35 35 30 28 24 22 26 19 24 17 13 9 8 5 4 3 7 7 9 13 11
8 9 11 6 13 7 23 17 23 29 26 32 47 50 31 27 36 38 45 45 43 39 36 40 36 31 28 25 32 34 33 30 26 25 27 24 24 22 16 13 7 7 6 4 1 6 9 11 11
16 14 14 19 14 6 3 8 17 28 29 43 44 51 49 22 34 39 42 49 49 40 35 39 38 35 31 24 25 25 32 32 27 25 23 23 27 26 20 17 13 12 10 8 6 2 7 13 10
3 6 19 13 7 6 11 5 11 27 31 40 56 56 51 44 29 38 49 44 44 44 37 37 40 36 37 28 24 23 23 21 20 21 24 20 24 26 26 22 17 15 13 11 11 4 5 11 13
19 21 18 12 3 8 12 14 12 22 39 41 59 61 56 43 34 26 31 36 41 48 42 41 43 34 39 31 27 24 21 21 18 18 25 23 21 23 25 25 20 17 12 14 16 9 4 5 10
7 21 8 7 8 6 3 13 7 21 16 40 55 70 61 52 31 25 33 37 42 50 49 46 42 38 37 35 28 23 21 20 17 15 19 19 22 25 23 23 27 19 13 16 18 13 7 4 3
31 24 15 25 11 13 9 13 4 7 13 23 53 65 63 55 36 21 34 37 39 44 49 46 45 42 38 33 33 27 17 18 18 18 16 14 21 20 20 22 26 20 17 18 21 16 11 8 7
14 18 8 6 3 10 7 6 10 6 9 22 43 54 62 52 32 24 29 35 36 42 44 47 46 44 44 38 32 32 26 20 20 19 18 20 18 19 18 20 25 25 21 23 23 22 20 16 15
15 13 15 7 16 15 7 8 9 12 15 21 37 55 62 54 43 29 27 32 43 44 42 43 43 43 44 41 35 31 28 23 23 28 24 23 23 22 20 20 22 23 24 23 26 25 23 23 21
9 9 3 6 5 18 9 7 4 14 19 21 34 45 54 57 64 40 28 29 29 40 46 44 39 43 38 45 39 33 31 24 20 18 22 27 23 22 22 20 20 22 21 21 22 26 26 23 27
2 2 9 14 13 2 8 8 6 9 21 23 24 29 38 44 41 46 47 36 27 39 33 46 39 35 37 40 42 37 35 28 22 21 10 31 24 23 20 22 26 28 28 29 24 22 26 27 25
Wind_Direction_850mb
132 137 34 9 280 162 87 102 106 130 143 152 148 156 121 53 35 101 146 151 148 146 144 144 138 124 121 122 115 120 111 98 98 96 96 99 101 101 94 92 97 96 100 99 100 101 96 92 93
137 113 48 18 302 99 76 106 133 139 141 141 119 127 96 76 80 133 142 147 147 145 144 142 141 131 128 125 125 120 117 103 95 96 100 102 102 102 102 100 101 96 101 101 96 100 99 90 86
112 63 60 32 52 89 109 128 134 127 137 141 113 89 67 75 126 137 145 146 151 148 143 140 139 136 133 133 132 129 124 111 106 105 101 98 98 99 100 106 102 99 96 95 94 94 85 82 78
123 21 41 80 70 62 97 144 134 135 147 73 121 76 74 129 130 143 144 145 149 146 142 142 140 143 140 143 138 134 133 129 115 105 101 97 97 94 100 106 109 99 92 88 99 93 82 78 72
103 73 233 98 71 59 109 141 143 145 152 127 109 98 112 144 144 143 143 146 148 141 139 134 133 139 136 145 149 149 144 138 123 111 103 105 98 99 103 113 111 103 95 87 90 95 82 77 74
108 214 33 64 98 99 90 107 136 132 133 119 105 114 101 144 147 144 144 144 146 142 135 136 131 137 135 131 140 145 144 140 135 126 110 108 102 104 96 111 115 105 94 90 90 92 85 74 67
106 128 60 56 118 105 90 103 108 116 118 98 132 106 128 143 149 146 144 146 147 142 139 140 139 144 137 136 138 140 146 138 138 133 127 117 102 102 106 103 116 110 97 93 95 88 76 66 60
129 94 44 23 149 105 95 96 107 110 91 125 129 141 153 160 151 147 146 149 145 145 145 143 140 144 137 133 135 134 141 151 143 138 133 125 110 105 107 109 114 112 101 94 90 82 65 60 54
147 89 77 299 145 99 138 125 84 111 123 108 155 143 148 151 149 149 150 151 151 154 147 146 143 141 138 134 129 133 136 144 145 137 140 133 115 113 102 110 116 113 103 94 87 76 59 46 43
53 94 133 194 176 152 146 117 123 133 122 90 116 128 145 151 156 156 159 157 157 163 158 153 144 141 139 141 136 143 145 149 151 145 137 130 123 115 109 107 112 111 102 88 77 62 51 46 43
125 135 165 199 210 170 142 137 114 135 147 177 149 147 153 158 162 165 165 163 162 162 158 153 152 150 146 149 144 145 151 153 148 145 138 129 122 115 112 112 110 104 93 76 58 43 44 57 62
170 199 170 173 185 164 149 120 116 61 327 153 151 150 156 164 167 173 172 167 167 166 161 156 154 152 151 141 136 136 139 152 149 144 138 132 123 115 111 111 114 107 93 81 61 66 53 57 67
224 164 185 174 181 158 139 117 122 102 121 144 148 152 160 166 171 178 175 168 171 168 164 161 155 152 149 145 134 131 137 143 143 143 139 135 126 119 118 122 120 109 95 83 66 69 55 66 74
185 158 137 172 173 147 121 90 92 183 144 151 157 162 168 172 173 175 179 173 172 169 168 165 158 155 149 145 146 137 138 139 143 145 142 138 134 126 124 129 121 105 109 84 66 52 50 60 76
137 133 105 122 141 109 100 125 203 171 160 166 168 171 175 177 180 179 176 173 169 170 168 163 163 156 153 146 146 141 140 143 146 147 143 141 145 132 128 134 134 113 117 81 58 55 51 50 62
143 150 156 164 149 144 173 195 211 170 168 176 177 182 184 185 188 186 186 172 170 172 167 162 166 168 167 164 156 149 145 145 148 151 153 151 157 138 129 137 156 125 97 76 64 40 39 43 48
99 159 140 148 168 155 205 131 186 188 183 183 181 187 191 189 194 197 196 186 178 176 175 171 176 170 167 161 164 164 156 156 155 164 165 158 152 144 141 132 147 140 107 80 66 53 55 46 33
161 145 152 129 163 170 185 116 161 184 184 189 183 192 197 199 198 201 200 193 190 187 190 186 185 182 186 179 176 172 172 172 173 178 180 175 168 155 154 140 144 140 125 98 63 61 54 32 35
122 118 131 122 158 159 164 143 159 167 178 193 193 193 207 209 204 202 207 200 199 202 198 195 190 192 190 193 188 184 188 190 188 189 189 198 183 171 160 149 148 127 129 98 52 58 39 32 32
134 127 99 106 139 144 159 157 162 171 186 185 188 201 206 209 205 206 210 208 202 205 200 199 190 190 196 200 197 194 197 199 198 193 197 196 186 184 171 162 170 165 149 113 50 45 28 40 49
181 175 159 113 150 160 157 141 168 189 182 168 185 217 196 216 211 210 207 211 204 207 201 196 195 188 185 190 201 208 211 204 203 203 202 208 200 203 202 203 212 230 216 208 119 32 32 48 56
208 203 155 145 178 158 231 160 205 183 192 183 179 197 208 208 209 214 213 208 208 209 203 198 195 193 195 188 189 204 207 207 214 213 208 205 211 211 210 215 231 232 227 212 194 47 45 53 64
230 181 181 162 124 194 182 223 137 191 205 205 190 196 200 207 209 203 213 212 209 209 208 206 200 203 202 198 197 199 202 201 209 206 208 206 201 208 207 211 219 222 232 220 192 181 84 62 72
141 120 94 91 129 238 182 223 175 185 215 206 206 200 196 203 209 220 209 209 208 210 215 212 204 202 202 204 199 206 204 210 214 215 207 205 207 204 204 211 210 200 218 210 195 185 160 86 73
204 181 156 163 190 231 171 191 278 189 214 211 202 201 199 192 195 215 201 205 215 213 214 214 208 205 203 211 209 209 223 226 223 214 210 221 210 194 196 199 193 195 212 203 199 202 191 195 78
204 228 226 207 195 198 137 219 188 239 248 231 205 196 192 193 200 206 203 205 215 217 213 216 214 211 208 213 213 215 217 215 201 212 229 224 209 198 201 196 195 202 215 210 208 220 230 235 235
181 220 280 127 76 214 167 225 217 196 211 194 192 186 190 184 176 187 193 198 208 224 222 220 223 220 217 217 221 223 227 227 225 215 217 220 208 207 209 205 203 210 221 221 218 227 238 248 251
220 158 198 239 179 216 191 259 236 202 191 185 189 191 191 191 181 182 191 200 217 224 228 227 228 224 225 222 225 223 224 230 233 224 224 210 212 210 215 210 208 216 220 221 226 232 242 246 247
167 199 194 221 272 225 197 227 144 189 186 188 190 193 192 195 198 202 199 202 207 221 229 234 227 224 225 225 227 228 221 227 225 217 232 213 210 207 210 214 220 223 225 226 227 234 236 247 246
285 85 219 225 186 242 282 212 160 189 175 177 182 186 196 198 198 205 211 231 219 223 223 227 220 214 222 223 229 229 223 223 223 227 234 211 217 212 218 228 233 240 241 240 241 239 241 242 245